Flag for Germany Weather past 2 weeks in Bremerhaven, Bremen, Germany

Now
63 °F

Passing clouds.


Feels Like: 63 °F
Forecast: 57 / 70 °F
Wind: 6 mph from Southeast

Location: Nordholz

Current Time: Aug 28, 2014 at 11:15:11 AM

Latest Report: Aug 28, 2014 at 10:20 AM


Visibility: N/A

Pressure: 30.01 "Hg

Humidity: 73%

Dew point: 54 °F

Location of BremerhavenLocation

Historic Weather in Bremerhaven — Graph

°F

Bremerhaven temperature yesterday

Maximum temperature yesterday: 68 °F (at 1:20 PM)
Minimum temperature yesterday: 50 °F (at 12:20 AM)
Average temperature yesterday: 59 °F

Past Weeks' High & Low Weather Summary

 TemperatureHumidityPressure
High72 °F (Aug 14, 2:20 PM)100% (Aug 15, 2:20 AM)30.04 "Hg (Aug 15, 2:20 AM)
Low45 °F (Aug 26, 2:20 AM)43% (Aug 27, 1:20 PM)29.45 "Hg (Aug 18, 8:20 AM)
Average57 °F81%29.82 "Hg
* Reported Aug 13 9:20 AM — Aug 28 9:20 AM, Bremerhaven, Weather by CustomWeather, © 2014

Note: Actual official high and low records may vary slightly from our data, if they occured in-between our weather recording intervals... More about our weather records

Advertising

Bremerhaven weather history for previous 24 hours

 ConditionsComfort  
Time TempWeatherWind HumidityBarometerVisibility
9:20 AM
Aug 28
55 °FPassing clouds.5 mph94%30.04 "Hg4 mi
8:46 AM52 °FFog.5 mph100%30.04 "Hg1 mi
8:20 AM48 °FFog.6 mph100%30.04 "Hg1 mi
7:20 AM48 °FFog.6 mph100%30.04 "Hg0 mi
6:20 AM52 °FFog.6 mph94%30.04 "Hg0 mi
5:20 AM54 °FFog.5 mph94%30.04 "Hg0 mi
4:20 AM54 °FFog.3 mph94%30.04 "Hg1 mi
3:20 AM54 °FFog.3 mph100%30.04 "Hg1 mi
2:56 AM50 °FFog.3 mph100%30.04 "Hg1 mi
2:20 AM52 °FFog.3 mph100%30.04 "Hg6 mi
1:20 AM52 °FFog.1 mph100%30.04 "HgN/A
12:20 AM54 °FFog.3 mph100%30.04 "HgN/A
12:00 AM54 °FFog.1 mph94%30.04 "HgN/A
11:20 PM
Aug 27
54 °FFog.1 mph94%30.04 "HgN/A
10:20 PM54 °FFog.3 mph94%30.04 "HgN/A
9:20 PM59 °FFog.3 mph88%30.04 "HgN/A
8:20 PM61 °FPassing clouds.6 mph83%30.04 "HgN/A
7:20 PM64 °FPassing clouds.6 mph68%30.04 "HgN/A
6:20 PM66 °FPassing clouds.7 mph56%30.01 "HgN/A
5:20 PM68 °FPassing clouds.7 mph53%30.01 "HgN/A
4:20 PM66 °FPassing clouds.9 mph60%30.04 "HgN/A
3:20 PM66 °FPassing clouds.10 mph56%30.04 "HgN/A
2:20 PM68 °FPassing clouds.10 mph43%30.01 "HgN/A
1:20 PM68 °FPassing clouds.8 mph43%30.01 "HgN/A
12:20 PM66 °FPassing clouds.7 mph56%30.01 "HgN/A
11:20 AM66 °FPassing clouds.3 mph46%30.01 "HgN/A
Weather by CustomWeather, © 2014

See weather overviewHow to use our weather pages